Weather History for Lamar, CO

Change the Weather History Date:

Tuesday, January 1, 2013

  Actual Average Record
Temperature  
Mean Temperature 14 °F 28 °F  
Max Temperature 26 °F 43 °F 66 °F (1970)
Min Temperature 1 °F 12 °F -14 °F (2011)
Degree Days  
Heating Degree Days 51 37  
Month to date heating degree days 51 37  
Since 1 July heating degree days 2201 2350  
Cooling Degree Days 0 0  
Month to date cooling degree days 0 0  
Year to date cooling degree days 0 0  
Moisture  
Dew Point 11 °F    
Average Humidity 85    
Maximum Humidity 95    
Minimum Humidity 75    
Precipitation  
Precipitation T in 0.00 in 0.11 in (1976)
Month to date precipitation T 0.00  
Year to date precipitation T 0.00  
Sea Level Pressure  
Sea Level Pressure 30.27 in    
Wind  
Wind Speed 7 mph (WSW)    
Max Wind Speed 13 mph    
Max Gust Speed 15 mph    
Visibility 9 miles    
Events Snow    
T = Trace of Precipitation, MM = Missing Value Source: NWS Daily Summary

Daily Weather History Graph

Daily Weather History Graph

Search for Another Location

Airport:

Trip Planner

Search our weather history database for the weather conditions in past years. The results will help you decide how hot, cold, wet, or windy it might be!

Date:

Astronomy

Jan. 01, 2013 Rise Set
Actual Time 7:07 AM MST 4:42 PM MST
Civil Twilight 6:37 AM MST 5:11 PM MST
Nautical Twilight 6:04 AM MST 5:44 PM MST
Astronomical Twilight 5:32 AM MST 6:16 PM MST
Moon 9:10 PM MST 9:24 AM MST
Length of Visible Light 10h 33m
Length of Day
9h 35m
Waning Gibbous, 83% of the Moon is Illuminated
Jan 1
Waning Gibbous
Jan 4
Last Quarter
Jan 11
New
Jan 18
First Quarter
Jan 26
Full

Hourly Weather History & Observations

Time (MST) Temp. Windchill Dew Point Humidity Pressure Visibility Wind Dir Wind Speed Gust Speed Precip Events Conditions
12:53 AM 15.1 °F 9.4 °F 12.0 °F 88% 30.21 in 5.0 mi SW 3.5 mph - 0.00 in Snow Light Snow
1:53 AM 12.9 °F 6.9 °F 10.9 °F 92% 30.22 in 4.0 mi West 3.5 mph - 0.00 in   Overcast
2:53 AM 9.0 °F 2.4 °F 7.0 °F 92% 30.23 in 8.0 mi WSW 3.5 mph - N/A   Clear
3:53 AM 3.9 °F -6.9 °F 1.9 °F 91% 30.26 in 7.0 mi WSW 5.8 mph - N/A   Clear
4:53 AM 6.1 °F -2.8 °F 3.9 °F 91% 30.26 in 7.0 mi SW 4.6 mph - N/A   Clear
6:53 AM 1.9 °F -12.9 °F -0.9 °F 88% 30.32 in 9.0 mi SSW 9.2 mph - N/A   Clear
7:53 AM 3.9 °F -10.4 °F 1.0 °F 88% 30.33 in 9.0 mi SSW 9.2 mph - N/A   Clear
8:53 AM 7.0 °F - 5.0 °F 92% 30.35 in 8.0 mi Calm Calm - N/A   Clear
9:53 AM 15.1 °F - 10.9 °F 84% 30.34 in 10.0 mi Calm Calm - N/A   Clear
10:53 AM 21.0 °F 10.6 °F 17.1 °F 85% 30.31 in 10.0 mi WSW 9.2 mph - N/A   Scattered Clouds
11:03 AM 21.2 °F 10.9 °F 17.6 °F 86% 30.20 in 10.0 mi WSW 9.2 mph - N/A   Mostly Cloudy
11:20 AM 23.0 °F 12.4 °F 19.4 °F 86% 30.19 in 10.0 mi West 10.4 mph - N/A   Scattered Clouds
11:53 AM 24.1 °F 13.7 °F 19.0 °F 81% 30.28 in 10.0 mi West 10.4 mph - N/A   Scattered Clouds
12:32 PM 24.8 °F 13.4 °F 19.4 °F 80% 30.16 in 9.0 mi West 12.7 mph - N/A   Mostly Cloudy
12:53 PM 25.0 °F 15.5 °F 19.0 °F 78% 30.26 in 8.0 mi West 9.2 mph - N/A   Mostly Cloudy
1:12 PM 24.8 °F 14.6 °F 19.4 °F 80% 30.15 in 8.0 mi West 10.4 mph - N/A   Scattered Clouds
1:53 PM 26.1 °F 17.6 °F 19.9 °F 78% 30.25 in 9.0 mi WSW 8.1 mph - N/A   Clear
3:53 PM 21.0 °F 10.6 °F 17.1 °F 85% 30.28 in 9.0 mi SSW 9.2 mph - N/A   Partly Cloudy
4:53 PM 17.1 °F 4.3 °F 14.0 °F 88% 30.29 in 9.0 mi SSW 11.5 mph - N/A   Partly Cloudy
5:53 PM 12.9 °F 0.7 °F 10.9 °F 92% 30.30 in 10.0 mi SSW 9.2 mph - N/A   Partly Cloudy
6:53 PM 17.1 °F 5.0 °F 12.9 °F 84% 30.31 in 10.0 mi SW 10.4 mph - N/A   Overcast
7:53 PM 10.0 °F 0.4 °F 8.1 °F 92% 30.32 in 9.0 mi West 5.8 mph - N/A   Clear
8:53 PM 6.1 °F -5.6 °F 5.0 °F 95% 30.32 in 10.0 mi WSW 6.9 mph - N/A   Clear
9:53 PM 8.1 °F -4.3 °F 3.9 °F 83% 30.30 in 10.0 mi WSW 8.1 mph - N/A   Clear
10:53 PM 9.0 °F -2.2 °F 6.1 °F 88% 30.30 in 10.0 mi SW 6.9 mph - N/A   Clear
11:53 PM 7.0 °F -8.3 °F 3.0 °F 84% 30.28 in 10.0 mi SSW 11.5 mph - N/A   Clear